MAS720 WIII-WMKK

Flight info

Callsign MAS720
Flight time 1h 44m
Altitude 40000
Route DOLTA T25 GUSKO A585 PLB G579 VJB A457 GUPTA GUPTA2J
Aircraft A339/H-SADE1E2E3GHIJ3J5M1P2RWXY/LB2D1

Departure

Time 2026-05-07 07:54
Airport Soekarno-Hatta International Airport (WIII)

Arrival

Time 2026-05-07 09:38
Airport Kuala Lumpur International Airport (WMKK)
Time Latitude Longitude Altitude Speed Heading
2026-05-07 07:20 -6.11878 106.66165 51 ft 0 kts 158°
2026-05-07 07:38 -6.11868 106.66161 51 ft 2 kts 158°
2026-05-07 07:39 -6.11855 106.66156 51 ft 2 kts 158°
2026-05-07 07:39 -6.11841 106.66150 51 ft 2 kts 158°
2026-05-07 07:39 -6.11826 106.66145 51 ft 2 kts 172°
2026-05-07 07:39 -6.11811 106.66145 51 ft 2 kts 186°
2026-05-07 07:40 -6.11797 106.66148 51 ft 2 kts 198°
2026-05-07 07:40 -6.11783 106.66154 51 ft 2 kts 211°
2026-05-07 07:40 -6.11771 106.66162 51 ft 2 kts 224°
2026-05-07 07:40 -6.11762 106.66174 51 ft 2 kts 237°
2026-05-07 07:41 -6.11756 106.66183 51 ft 0 kts 246°
2026-05-07 07:41 -6.11755 106.66186 51 ft 0 kts 248°
2026-05-07 07:44 -6.11756 106.66183 51 ft 1 kts 248°
2026-05-07 07:45 -6.11761 106.66171 51 ft 3 kts 248°
2026-05-07 07:45 -6.11773 106.66143 51 ft 6 kts 246°
2026-05-07 07:45 -6.11795 106.66093 51 ft 8 kts 246°
2026-05-07 07:45 -6.11805 106.66036 51 ft 7 kts 297°
2026-05-07 07:46 -6.11750 106.66000 51 ft 9 kts 336°
2026-05-07 07:46 -6.11667 106.65966 51 ft 12 kts 338°
2026-05-07 07:46 -6.11584 106.65934 51 ft 13 kts 338°
2026-05-07 07:46 -6.11515 106.65902 51 ft 9 kts 315°
2026-05-07 07:47 -6.11517 106.65836 51 ft 11 kts 248°
2026-05-07 07:47 -6.11550 106.65752 51 ft 14 kts 248°
2026-05-07 07:47 -6.11587 106.65657 51 ft 16 kts 248°
2026-05-07 07:47 -6.11632 106.65547 51 ft 17 kts 248°
2026-05-07 07:48 -6.11676 106.65435 51 ft 18 kts 249°
2026-05-07 07:48 -6.11721 106.65320 51 ft 17 kts 248°
2026-05-07 07:48 -6.11764 106.65212 51 ft 16 kts 248°
2026-05-07 07:48 -6.11806 106.65106 51 ft 16 kts 249°
2026-05-07 07:49 -6.11848 106.64998 51 ft 16 kts 248°
2026-05-07 07:49 -6.11889 106.64895 51 ft 17 kts 248°
2026-05-07 07:49 -6.11933 106.64784 51 ft 17 kts 248°
2026-05-07 07:49 -6.11977 106.64672 51 ft 18 kts 248°
2026-05-07 07:50 -6.12024 106.64555 51 ft 18 kts 248°
2026-05-07 07:50 -6.12071 106.64436 51 ft 19 kts 248°
2026-05-07 07:50 -6.12122 106.64306 51 ft 20 kts 248°
2026-05-07 07:50 -6.12175 106.64172 51 ft 20 kts 248°
2026-05-07 07:51 -6.12225 106.64045 51 ft 19 kts 248°
2026-05-07 07:51 -6.12259 106.63937 51 ft 13 kts 266°
2026-05-07 07:51 -6.12229 106.63889 51 ft 9 kts 347°
2026-05-07 07:51 -6.12162 106.63896 51 ft 11 kts 26°
2026-05-07 07:52 -6.12102 106.63930 51 ft 7 kts 24°
2026-05-07 07:52 -6.12067 106.63957 51 ft 5 kts 62°
2026-05-07 07:52 -6.12062 106.63967 51 ft 0 kts 68°
2026-05-07 07:53 -6.12045 106.64008 51 ft 27 kts 67°
2026-05-07 07:53 -6.11889 106.64401 52 ft 91 kts 68°
2026-05-07 07:53 -6.11585 106.65169 52 ft 144 kts 68°
2026-05-07 07:53 -6.11169 106.66198 330 ft 165 kts 66°
2026-05-07 07:54 -6.10774 106.67222 1043 ft 157 kts 68°
2026-05-07 07:54 -6.10208 106.68082 1718 ft 151 kts 38°
2026-05-07 07:54 -6.09318 106.68684 2085 ft 159 kts 32°
2026-05-07 07:54 -6.08340 106.69270 2339 ft 172 kts 32°
2026-05-07 07:55 -6.07281 106.69909 2634 ft 184 kts 32°
2026-05-07 07:55 -6.06176 106.70592 2899 ft 197 kts 33°
2026-05-07 07:55 -6.04983 106.71342 3170 ft 213 kts 33°
2026-05-07 07:55 -6.03696 106.72156 3482 ft 229 kts 33°
2026-05-07 07:56 -6.02320 106.73031 3797 ft 246 kts 33°
2026-05-07 07:56 -6.00853 106.73965 4139 ft 262 kts 33°
2026-05-07 07:56 -5.99176 106.74743 4709 ft 271 kts 11°
2026-05-07 07:56 -5.97313 106.74663 5378 ft 276 kts 343°
2026-05-07 07:57 -5.95801 106.73806 5978 ft 281 kts 317°
2026-05-07 07:57 -5.94685 106.72174 6649 ft 286 kts 297°
2026-05-07 07:57 -5.93689 106.70568 7286 ft 287 kts 313°
2026-05-07 07:57 -5.92263 106.69200 7959 ft 289 kts 320°
2026-05-07 07:58 -5.90750 106.67897 8620 ft 292 kts 320°
2026-05-07 07:58 -5.89212 106.66546 9292 ft 295 kts 319°
2026-05-07 07:58 -5.87681 106.65155 9965 ft 298 kts 318°
2026-05-07 07:58 -5.86275 106.63846 10490 ft 304 kts 317°
2026-05-07 07:59 -5.84784 106.62434 10777 ft 319 kts 317°
2026-05-07 07:59 -5.83503 106.61208 11057 ft 330 kts 316°
2026-05-07 07:59 -5.82141 106.59897 11538 ft 335 kts 316°
2026-05-07 07:59 -5.80001 106.57828 12425 ft 338 kts 316°
2026-05-07 08:00 -5.78062 106.55948 13186 ft 342 kts 316°
2026-05-07 08:00 -5.76331 106.54268 13853 ft 345 kts 316°
2026-05-07 08:00 -5.74606 106.52593 14511 ft 348 kts 316°
2026-05-07 08:00 -5.72861 106.50899 15167 ft 352 kts 316°
2026-05-07 08:01 -5.71118 106.49206 15813 ft 355 kts 316°
2026-05-07 08:01 -5.69321 106.47463 16471 ft 359 kts 316°
2026-05-07 08:01 -5.67551 106.45744 17111 ft 362 kts 316°
2026-05-07 08:01 -5.65725 106.43972 17761 ft 366 kts 316°
2026-05-07 08:02 -5.63875 106.42177 18409 ft 369 kts 316°
2026-05-07 08:02 -5.62018 106.40376 19049 ft 373 kts 316°
2026-05-07 08:02 -5.60158 106.38571 19675 ft 376 kts 316°
2026-05-07 08:02 -5.58274 106.36743 20289 ft 380 kts 317°
2026-05-07 08:03 -5.56380 106.34907 20889 ft 383 kts 317°
2026-05-07 08:03 -5.54458 106.33043 21478 ft 387 kts 317°
2026-05-07 08:03 -5.52515 106.31158 22054 ft 390 kts 317°
2026-05-07 08:03 -5.50542 106.29246 22616 ft 393 kts 317°
2026-05-07 08:04 -5.48592 106.27355 23150 ft 397 kts 317°
2026-05-07 08:04 -5.46587 106.25410 23683 ft 400 kts 317°
2026-05-07 08:04 -5.44576 106.23457 24215 ft 402 kts 317°
2026-05-07 08:04 -5.42577 106.21516 24732 ft 405 kts 317°
2026-05-07 08:05 -5.40552 106.19553 25224 ft 408 kts 317°
2026-05-07 08:05 -5.38494 106.17557 25702 ft 411 kts 317°
2026-05-07 08:05 -5.36442 106.15569 26162 ft 414 kts 317°
2026-05-07 08:05 -5.34380 106.13570 26608 ft 416 kts 317°
2026-05-07 08:06 -5.32280 106.11536 27047 ft 419 kts 317°
2026-05-07 08:06 -5.30184 106.09506 27470 ft 422 kts 317°
2026-05-07 08:06 -5.28057 106.07445 27888 ft 425 kts 317°
2026-05-07 08:06 -5.25941 106.05396 28291 ft 427 kts 317°
2026-05-07 08:07 -5.23794 106.03316 28688 ft 430 kts 317°
2026-05-07 08:07 -5.21647 106.01238 29074 ft 433 kts 317°
2026-05-07 08:07 -5.19475 105.99133 29454 ft 435 kts 317°
2026-05-07 08:07 -5.17296 105.97025 29827 ft 438 kts 318°
2026-05-07 08:08 -5.15033 105.94971 30187 ft 440 kts 321°
2026-05-07 08:08 -5.12646 105.93041 30537 ft 442 kts 324°
2026-05-07 08:08 -5.10182 105.91274 30875 ft 443 kts 327°
2026-05-07 08:08 -5.07593 105.89637 31201 ft 445 kts 331°
2026-05-07 08:09 -5.04874 105.88071 31522 ft 448 kts 332°
2026-05-07 08:09 -5.02167 105.86540 31834 ft 450 kts 332°
2026-05-07 08:09 -4.99470 105.85015 32140 ft 453 kts 332°
2026-05-07 08:09 -4.96735 105.83466 32447 ft 455 kts 332°
2026-05-07 08:10 -4.93994 105.81910 32752 ft 457 kts 332°
2026-05-07 08:10 -4.91207 105.80325 33058 ft 459 kts 332°
2026-05-07 08:10 -4.88429 105.78745 33357 ft 461 kts 332°
2026-05-07 08:10 -4.85661 105.77169 33651 ft 463 kts 332°
2026-05-07 08:11 -4.82878 105.75584 33937 ft 465 kts 332°
2026-05-07 08:11 -4.80114 105.74010 34216 ft 466 kts 332°
2026-05-07 08:11 -4.77341 105.72433 34577 ft 466 kts 332°
2026-05-07 08:11 -4.74581 105.70861 34975 ft 464 kts 332°
2026-05-07 08:12 -4.71792 105.69274 35361 ft 462 kts 332°
2026-05-07 08:12 -4.69008 105.67690 35721 ft 461 kts 332°
2026-05-07 08:12 -4.66241 105.66115 36059 ft 461 kts 332°
2026-05-07 08:12 -4.63430 105.64516 36388 ft 460 kts 332°
2026-05-07 08:13 -4.60663 105.62941 36690 ft 459 kts 332°
2026-05-07 08:13 -4.57900 105.61369 36969 ft 459 kts 332°
2026-05-07 08:13 -4.55108 105.59781 37237 ft 459 kts 332°
2026-05-07 08:13 -4.52341 105.58206 37495 ft 460 kts 332°
2026-05-07 08:14 -4.49552 105.56621 37750 ft 460 kts 332°
2026-05-07 08:14 -4.46794 105.55052 37995 ft 460 kts 332°
2026-05-07 08:14 -4.44044 105.53488 38222 ft 460 kts 332°
2026-05-07 08:14 -4.41243 105.51895 38419 ft 461 kts 332°
2026-05-07 08:15 -4.38457 105.50311 38595 ft 462 kts 332°
2026-05-07 08:15 -4.35667 105.48725 38758 ft 464 kts 332°
2026-05-07 08:15 -4.32847 105.47122 38924 ft 465 kts 332°
2026-05-07 08:15 -4.30052 105.45533 39089 ft 466 kts 332°
2026-05-07 08:16 -4.27246 105.43938 39250 ft 467 kts 332°
2026-05-07 08:16 -4.24427 105.42336 39405 ft 468 kts 332°
2026-05-07 08:16 -4.21583 105.40720 39559 ft 469 kts 332°
2026-05-07 08:16 -4.18743 105.39106 39711 ft 470 kts 332°
2026-05-07 08:17 -4.15909 105.37496 39782 ft 472 kts 332°
2026-05-07 08:17 -4.10211 105.34259 39785 ft 472 kts 332°
2026-05-07 08:18 -4.04476 105.31002 39785 ft 472 kts 332°
2026-05-07 08:18 -3.98766 105.27760 39785 ft 472 kts 332°
2026-05-07 08:19 -3.92916 105.24889 39783 ft 470 kts 342°
2026-05-07 08:19 -3.86696 105.22959 39785 ft 470 kts 345°
2026-05-07 08:20 -3.80442 105.21087 39794 ft 470 kts 345°
2026-05-07 08:20 -3.74170 105.19180 39803 ft 470 kts 344°
2026-05-07 08:21 -3.67941 105.17271 39807 ft 470 kts 344°
2026-05-07 08:21 -3.61686 105.15347 39809 ft 470 kts 344°
2026-05-07 08:22 -3.55476 105.13436 39809 ft 470 kts 344°
2026-05-07 08:22 -3.49233 105.11515 39809 ft 470 kts 344°
2026-05-07 08:23 -3.43000 105.09597 39810 ft 470 kts 344°
2026-05-07 08:23 -3.36777 105.07682 39810 ft 470 kts 344°
2026-05-07 08:24 -3.30554 105.05767 39810 ft 469 kts 344°
2026-05-07 08:24 -3.24350 105.03858 39810 ft 469 kts 344°
2026-05-07 08:25 -3.18128 105.01945 39810 ft 469 kts 344°
2026-05-07 08:25 -3.11926 105.00037 39810 ft 468 kts 344°
2026-05-07 08:26 -3.02582 104.97163 39809 ft 468 kts 344°
2026-05-07 08:26 -2.96386 104.95259 39809 ft 469 kts 344°
2026-05-07 08:27 -2.90150 104.93342 39809 ft 470 kts 344°
2026-05-07 08:27 -2.83912 104.91425 39809 ft 470 kts 344°
2026-05-07 08:28 -2.77679 104.89509 39810 ft 470 kts 344°
2026-05-07 08:28 -2.71468 104.87600 39810 ft 470 kts 344°
2026-05-07 08:29 -2.65257 104.85691 39809 ft 470 kts 344°
2026-05-07 08:29 -2.59011 104.83772 39809 ft 470 kts 344°
2026-05-07 08:30 -2.52773 104.81855 39809 ft 470 kts 344°
2026-05-07 08:30 -2.46578 104.79952 39809 ft 470 kts 344°
2026-05-07 08:31 -2.40318 104.78030 39809 ft 470 kts 344°
2026-05-07 08:31 -2.34063 104.76109 39809 ft 470 kts 344°
2026-05-07 08:32 -2.27846 104.74199 39809 ft 470 kts 344°
2026-05-07 08:32 -2.21622 104.72288 39809 ft 470 kts 344°
2026-05-07 08:33 -2.15407 104.70379 39809 ft 470 kts 344°
2026-05-07 08:33 -2.09179 104.68467 39809 ft 470 kts 344°
2026-05-07 08:34 -2.02938 104.66551 39809 ft 470 kts 344°
2026-05-07 08:34 -1.96720 104.64642 39809 ft 470 kts 344°
2026-05-07 08:35 -1.90481 104.62727 39809 ft 470 kts 344°
2026-05-07 08:35 -1.84259 104.60817 39809 ft 470 kts 344°
2026-05-07 08:36 -1.78021 104.58903 39809 ft 470 kts 344°
2026-05-07 08:36 -1.71760 104.56982 39809 ft 470 kts 344°
2026-05-07 08:37 -1.65521 104.55067 39809 ft 470 kts 344°
2026-05-07 08:37 -1.59331 104.53168 39810 ft 470 kts 344°
2026-05-07 08:38 -1.53076 104.51248 39809 ft 470 kts 344°
2026-05-07 08:38 -1.46841 104.49335 39809 ft 470 kts 344°
2026-05-07 08:39 -1.40634 104.47431 39809 ft 470 kts 344°
2026-05-07 08:39 -1.34414 104.45523 39809 ft 470 kts 344°
2026-05-07 08:40 -1.28173 104.43608 39809 ft 470 kts 344°
2026-05-07 08:40 -1.21918 104.41689 39809 ft 470 kts 344°
2026-05-07 08:41 -1.15708 104.39784 39809 ft 470 kts 344°
2026-05-07 08:41 -1.09459 104.37867 39809 ft 470 kts 344°
2026-05-07 08:42 -1.03218 104.35950 39809 ft 470 kts 345°
2026-05-07 08:42 -0.96939 104.34024 39808 ft 471 kts 345°
2026-05-07 08:43 -0.90726 104.32121 39809 ft 472 kts 345°
2026-05-07 08:43 -0.84450 104.30198 39809 ft 472 kts 345°
2026-05-07 08:44 -0.78199 104.28281 39809 ft 472 kts 345°
2026-05-07 08:44 -0.71961 104.26369 39809 ft 472 kts 345°
2026-05-07 08:45 -0.65666 104.24439 39809 ft 472 kts 345°
2026-05-07 08:45 -0.59436 104.22529 39809 ft 472 kts 346°
2026-05-07 08:46 -0.53096 104.20960 39810 ft 470 kts 351°
2026-05-07 08:46 -0.46698 104.19688 39809 ft 470 kts 351°
2026-05-07 08:47 -0.40297 104.18429 39809 ft 470 kts 351°
2026-05-07 08:47 -0.33911 104.17165 39809 ft 470 kts 351°
2026-05-07 08:48 -0.27503 104.15894 39809 ft 470 kts 351°
2026-05-07 08:48 -0.21072 104.14619 39809 ft 470 kts 351°
2026-05-07 08:49 -0.14704 104.13354 39809 ft 470 kts 351°
2026-05-07 08:49 -0.08289 104.12082 39809 ft 470 kts 351°
2026-05-07 08:50 -0.01914 104.10816 39809 ft 470 kts 351°
2026-05-07 08:50 0.04519 104.09540 39809 ft 470 kts 351°
2026-05-07 08:51 0.10897 104.08274 39809 ft 470 kts 351°
2026-05-07 08:51 0.17304 104.07003 39809 ft 470 kts 351°
2026-05-07 08:52 0.23688 104.05737 39809 ft 470 kts 351°
2026-05-07 08:52 0.30100 104.04464 39809 ft 470 kts 351°
2026-05-07 08:53 0.36474 104.03200 39809 ft 470 kts 351°
2026-05-07 08:53 0.42901 104.01928 39809 ft 470 kts 351°
2026-05-07 08:54 0.49279 104.00665 39809 ft 470 kts 351°
2026-05-07 08:54 0.55681 103.99397 39809 ft 470 kts 351°
2026-05-07 08:55 0.62056 103.98131 39809 ft 470 kts 351°
2026-05-07 08:55 0.68448 103.96860 39809 ft 470 kts 351°
2026-05-07 08:56 0.74859 103.95576 39809 ft 470 kts 350°
2026-05-07 08:56 0.81236 103.94226 39809 ft 470 kts 350°
2026-05-07 08:57 0.87640 103.92866 39809 ft 470 kts 350°
2026-05-07 08:57 0.94020 103.91519 39809 ft 470 kts 350°
2026-05-07 08:58 1.00443 103.90163 39809 ft 470 kts 350°
2026-05-07 08:58 1.06851 103.88806 39809 ft 471 kts 351°
2026-05-07 08:59 1.13226 103.87458 39809 ft 472 kts 351°
2026-05-07 08:59 1.19609 103.86066 39806 ft 474 kts 346°
2026-05-07 09:00 1.25720 103.83695 39809 ft 477 kts 338°
2026-05-07 09:00 1.31641 103.80675 39806 ft 478 kts 334°
2026-05-07 09:01 1.37496 103.77607 39800 ft 478 kts 335°
2026-05-07 09:01 1.43366 103.74609 39794 ft 478 kts 335°
2026-05-07 09:02 1.49352 103.71692 39788 ft 477 kts 339°
2026-05-07 09:02 1.55554 103.69442 39787 ft 474 kts 345°
2026-05-07 09:03 1.61818 103.67426 39781 ft 477 kts 339°
2026-05-07 09:03 1.64716 103.65801 39781 ft 481 kts 326°
2026-05-07 09:03 1.67177 103.63570 39783 ft 485 kts 312°
2026-05-07 09:04 1.69101 103.60807 39785 ft 488 kts 300°
2026-05-07 09:04 1.70645 103.57775 39789 ft 488 kts 297°
2026-05-07 09:04 1.73559 103.51640 39195 ft 491 kts 296°
2026-05-07 09:05 1.75025 103.48576 38402 ft 497 kts 297°
2026-05-07 09:05 1.76544 103.45441 37630 ft 501 kts 297°
2026-05-07 09:05 1.78061 103.42333 36980 ft 502 kts 297°
2026-05-07 09:05 1.79595 103.39202 36389 ft 501 kts 297°
2026-05-07 09:06 1.81126 103.36084 35787 ft 500 kts 297°
2026-05-07 09:06 1.82655 103.32970 35129 ft 500 kts 297°
2026-05-07 09:06 1.84187 103.29849 34407 ft 502 kts 297°
2026-05-07 09:06 1.85718 103.26728 33672 ft 503 kts 297°
2026-05-07 09:07 1.87248 103.23609 33141 ft 500 kts 297°
2026-05-07 09:07 1.88774 103.20499 32687 ft 495 kts 297°
2026-05-07 09:07 1.90277 103.17436 32218 ft 491 kts 296°
2026-05-07 09:07 1.91791 103.14351 31751 ft 487 kts 296°
2026-05-07 09:08 1.93259 103.11361 31314 ft 483 kts 296°
2026-05-07 09:08 1.94741 103.08337 30883 ft 478 kts 295°
2026-05-07 09:08 1.96184 103.05393 30466 ft 474 kts 295°
2026-05-07 09:08 1.97625 103.02452 30049 ft 469 kts 295°
2026-05-07 09:09 1.99048 102.99548 29676 ft 463 kts 295°
2026-05-07 09:09 2.00456 102.96673 29317 ft 457 kts 295°
2026-05-07 09:09 2.01843 102.93844 28962 ft 451 kts 295°
2026-05-07 09:09 2.03220 102.91033 28611 ft 445 kts 295°
2026-05-07 09:10 2.04571 102.88278 28268 ft 440 kts 295°
2026-05-07 09:10 2.05894 102.85574 27934 ft 434 kts 295°
2026-05-07 09:10 2.07207 102.82883 27600 ft 429 kts 295°
2026-05-07 09:10 2.08512 102.80211 27273 ft 423 kts 295°
2026-05-07 09:11 2.09790 102.77594 26955 ft 418 kts 295°
2026-05-07 09:11 2.11065 102.74983 26635 ft 413 kts 295°
2026-05-07 09:11 2.12309 102.72437 26323 ft 408 kts 295°
2026-05-07 09:11 2.13540 102.69919 26017 ft 402 kts 295°
2026-05-07 09:12 2.14764 102.67413 25714 ft 397 kts 295°
2026-05-07 09:12 2.15963 102.64958 25417 ft 392 kts 294°
2026-05-07 09:12 2.17009 102.62474 25123 ft 385 kts 281°
2026-05-07 09:12 2.17102 102.59855 24828 ft 374 kts 256°
2026-05-07 09:13 2.16123 102.57516 24541 ft 364 kts 233°
2026-05-07 09:13 2.14358 102.55734 24253 ft 357 kts 213°
2026-05-07 09:13 2.12138 102.54715 23970 ft 351 kts 193°
2026-05-07 09:13 2.09731 102.54534 23686 ft 346 kts 173°
2026-05-07 09:14 2.07457 102.55175 23407 ft 344 kts 154°
2026-05-07 09:14 2.05489 102.56524 23128 ft 342 kts 136°
2026-05-07 09:14 2.04109 102.58408 22852 ft 341 kts 117°
2026-05-07 09:14 2.03374 102.60659 22592 ft 338 kts 105°
2026-05-07 09:15 2.02867 102.62951 22345 ft 334 kts 104°
2026-05-07 09:15 2.02392 102.65185 22106 ft 330 kts 104°
2026-05-07 09:15 2.01900 102.67435 21867 ft 326 kts 104°
2026-05-07 09:15 2.01412 102.69611 21636 ft 321 kts 104°
2026-05-07 09:16 2.00957 102.71778 21402 ft 318 kts 97°
2026-05-07 09:16 2.01078 102.73991 21149 ft 317 kts 77°
2026-05-07 09:16 2.01912 102.76008 20911 ft 315 kts 57°
2026-05-07 09:16 2.03353 102.77647 20676 ft 311 kts 38°
2026-05-07 09:17 2.05187 102.78715 20425 ft 308 kts 19°
2026-05-07 09:17 2.07269 102.79157 20140 ft 304 kts
2026-05-07 09:17 2.09347 102.78941 19850 ft 300 kts 341°
2026-05-07 09:17 2.11218 102.78120 19562 ft 295 kts 324°
2026-05-07 09:18 2.12750 102.76783 19274 ft 290 kts 306°
2026-05-07 09:18 2.13793 102.75092 18988 ft 285 kts 290°
2026-05-07 09:18 2.14353 102.73215 18717 ft 282 kts 281°
2026-05-07 09:18 2.14769 102.71292 18447 ft 280 kts 280°
2026-05-07 09:19 2.15168 102.69403 18178 ft 279 kts 280°
2026-05-07 09:19 2.15578 102.67522 17912 ft 277 kts 281°
2026-05-07 09:19 2.16001 102.65636 17645 ft 276 kts 281°
2026-05-07 09:19 2.16427 102.63792 17400 ft 274 kts 283°
2026-05-07 09:20 2.17016 102.61960 17000 ft 280 kts 290°
2026-05-07 09:20 2.17855 102.60169 16578 ft 285 kts 297°
2026-05-07 09:20 2.18921 102.58492 16163 ft 290 kts 304°
2026-05-07 09:20 2.20112 102.56860 15820 ft 290 kts 302°
2026-05-07 09:21 2.21181 102.55149 15530 ft 288 kts 298°
2026-05-07 09:21 2.22151 102.53430 15322 ft 284 kts 297°
2026-05-07 09:21 2.23097 102.51713 15163 ft 278 kts 297°
2026-05-07 09:21 2.24028 102.50012 14965 ft 274 kts 297°
2026-05-07 09:22 2.24934 102.48354 14743 ft 271 kts 297°
2026-05-07 09:22 2.25834 102.46703 14512 ft 268 kts 297°
2026-05-07 09:22 2.26715 102.45084 14281 ft 266 kts 297°
2026-05-07 09:22 2.27598 102.43462 14047 ft 264 kts 297°
2026-05-07 09:23 2.28474 102.41854 13813 ft 262 kts 297°
2026-05-07 09:23 2.29339 102.40263 13551 ft 262 kts 297°
2026-05-07 09:23 2.30214 102.38654 13056 ft 270 kts 297°
2026-05-07 09:23 2.31115 102.36996 12712 ft 272 kts 297°
2026-05-07 09:24 2.32025 102.35324 12459 ft 270 kts 297°
2026-05-07 09:24 2.32916 102.33688 12211 ft 269 kts 297°
2026-05-07 09:24 2.33806 102.32050 11956 ft 268 kts 297°
2026-05-07 09:24 2.34692 102.30425 11700 ft 267 kts 297°
2026-05-07 09:25 2.35584 102.28787 11439 ft 266 kts 297°
2026-05-07 09:25 2.36462 102.27175 11184 ft 265 kts 297°
2026-05-07 09:25 2.37346 102.25551 11076 ft 261 kts 298°
2026-05-07 09:25 2.38197 102.23981 10876 ft 260 kts 297°
2026-05-07 09:26 2.39069 102.22387 10539 ft 263 kts 297°
2026-05-07 09:26 2.39947 102.20779 10273 ft 262 kts 297°
2026-05-07 09:26 2.40818 102.19181 10026 ft 261 kts 297°
2026-05-07 09:26 2.41686 102.17586 9778 ft 260 kts 297°
2026-05-07 09:27 2.42554 102.15992 9531 ft 259 kts 297°
2026-05-07 09:27 2.43404 102.14431 9286 ft 258 kts 297°
2026-05-07 09:27 2.45129 102.11265 8762 ft 258 kts 296°
2026-05-07 09:28 2.45983 102.09692 8527 ft 256 kts 296°
2026-05-07 09:28 2.46821 102.08152 8233 ft 252 kts 296°
2026-05-07 09:28 2.47653 102.06619 7947 ft 247 kts 297°
2026-05-07 09:28 2.48474 102.05111 7766 ft 244 kts 296°
2026-05-07 09:29 2.49277 102.03638 7606 ft 240 kts 296°
2026-05-07 09:29 2.50065 102.02189 7428 ft 238 kts 296°
2026-05-07 09:29 2.50857 102.00732 7217 ft 237 kts 296°
2026-05-07 09:29 2.51645 101.99281 6991 ft 237 kts 296°
2026-05-07 09:30 2.52327 101.97778 6740 ft 235 kts 279°
2026-05-07 09:30 2.52264 101.96188 6505 ft 230 kts 249°
2026-05-07 09:30 2.51494 101.94775 6297 ft 228 kts 236°
2026-05-07 09:30 2.50605 101.93482 6086 ft 228 kts 234°
2026-05-07 09:31 2.49738 101.92159 5918 ft 225 kts 246°
2026-05-07 09:31 2.49512 101.90648 5733 ft 223 kts 279°
2026-05-07 09:31 2.50118 101.89230 5556 ft 223 kts 303°
2026-05-07 09:31 2.51171 101.88100 5388 ft 222 kts 317°
2026-05-07 09:32 2.52400 101.87189 5233 ft 219 kts 323°
2026-05-07 09:32 2.53669 101.86352 4999 ft 220 kts 324°
2026-05-07 09:32 2.54954 101.85518 4709 ft 223 kts 324°
2026-05-07 09:32 2.56262 101.84662 4409 ft 223 kts 324°
2026-05-07 09:33 2.57532 101.83822 4110 ft 218 kts 323°
2026-05-07 09:33 2.58778 101.82990 3823 ft 212 kts 323°
2026-05-07 09:33 2.59997 101.82173 3541 ft 206 kts 323°
2026-05-07 09:33 2.61164 101.81389 3269 ft 201 kts 323°
2026-05-07 09:34 2.62290 101.80631 3004 ft 193 kts 323°
2026-05-07 09:34 2.63371 101.79904 2743 ft 183 kts 323°
2026-05-07 09:34 2.64403 101.79211 2502 ft 174 kts 323°
2026-05-07 09:34 2.65386 101.78552 2278 ft 165 kts 323°
2026-05-07 09:35 2.66315 101.77928 2065 ft 158 kts 324°
2026-05-07 09:35 2.67231 101.77313 1875 ft 159 kts 323°
2026-05-07 09:35 2.68140 101.76702 1677 ft 153 kts 326°
2026-05-07 09:35 2.69016 101.76116 1473 ft 151 kts 327°
2026-05-07 09:36 2.69908 101.75536 1283 ft 154 kts 326°
2026-05-07 09:36 2.70791 101.74920 1089 ft 156 kts 324°
2026-05-07 09:36 2.71677 101.74302 874 ft 156 kts 327°
2026-05-07 09:36 2.72582 101.73709 649 ft 153 kts 327°
2026-05-07 09:37 2.73461 101.73129 437 ft 150 kts 326°
2026-05-07 09:37 2.74315 101.72555 243 ft 147 kts 326°
2026-05-07 09:37 2.75157 101.71999 87 ft 141 kts 327°
2026-05-07 09:37 2.75859 101.71524 84 ft 101 kts 326°
2026-05-07 09:38 2.76293 101.71233 84 ft 49 kts 326°
2026-05-07 09:38 2.76476 101.71104 83 ft 24 kts 311°
2026-05-07 09:38 2.76550 101.70976 84 ft 15 kts 294°
2026-05-07 09:38 2.76585 101.70885 84 ft 8 kts 267°
2026-05-07 09:39 2.76545 101.70846 83 ft 9 kts 186°
2026-05-07 09:39 2.76475 101.70877 83 ft 12 kts 145°
2026-05-07 09:39 2.76398 101.70931 83 ft 14 kts 146°
2026-05-07 09:39 2.76309 101.70988 83 ft 15 kts 147°
2026-05-07 09:40 2.76213 101.71027 83 ft 15 kts 167°
2026-05-07 09:40 2.76101 101.71047 83 ft 15 kts 170°
2026-05-07 09:40 2.76005 101.71081 83 ft 15 kts 151°
2026-05-07 09:40 2.75913 101.71141 83 ft 16 kts 146°
2026-05-07 09:41 2.75812 101.71209 83 ft 18 kts 146°
2026-05-07 09:41 2.75704 101.71281 83 ft 19 kts 146°
2026-05-07 09:41 2.75592 101.71357 83 ft 19 kts 146°
2026-05-07 09:41 2.75490 101.71426 83 ft 16 kts 146°
2026-05-07 09:42 2.75421 101.71464 83 ft 8 kts 175°
2026-05-07 09:42 2.75373 101.71431 83 ft 7 kts 242°
2026-05-07 09:42 2.75337 101.71378 83 ft 11 kts 235°
2026-05-07 09:42 2.75284 101.71300 83 ft 15 kts 236°
2026-05-07 09:43 2.75227 101.71217 83 ft 14 kts 235°
2026-05-07 09:43 2.75168 101.71131 83 ft 14 kts 236°
2026-05-07 09:43 2.75123 101.71101 83 ft 8 kts 161°
2026-05-07 09:43 2.75071 101.71133 83 ft 6 kts 146°
2026-05-07 09:44 2.75057 101.71143 83 ft 1 kts 146°
2026-05-07 09:44 2.75056 101.71143 83 ft 0 kts 146°